Regional Weather Roundup
Issued by NWS

Home | Current Version | Previous Version | Text Only | Print | Product List | Glossary Off
Versions: 1 2 3 4 5 6 7 8 9 10 11 12 13 14 15 16 17 18 19 20 21 22 23 24 25 26 27 28 29 30 31 32 33 34 35 36 37 38 39 40 41 42 43 44 45 46 47 48 49 50

000
ASUS43 KOAX 252110
RWRNE

WEATHER ROUNDUP FOR NEBRASKA
NATIONAL WEATHER SERVICE OMAHA NE
300 PM CST THU DEC 25 2014

NOTES: SATELLITE DATA IS BEING USED TO AUGMENT CLOUD COVER ABOVE
       12000 FEET.
       "FAIR" INDICATES FEW OR NO CLOUDS BELOW 12,000 FEET WITH NO
       SIGNIFICANT WEATHER AND/OR OBSTRUCTIONS TO VISIBILITY.

  * THESE STATIONS DO NOT REPORT WEATHER SUCH AS RAIN...SNOW OR FOG.

NEZ001>004-019>022-054>056-252200-
NEBRASKA PANHANDLE

CITY           SKY/WX    TMP DP  RH WIND       PRES   REMARKS
SCOTTSBLUFF    LGT SNOW  29  26  89 NE18      29.60S VSB 3/4 WCI  16
ALLIANCE       SNOW      28  26  92 N20G32    29.60R VSB 1/2 WCI  15
CHADRON        CLOUDY    29  26  89 N20       29.71R FOG     WCI  16
KIMBALL        LGT SNOW  28  26  91 N18G24    29.53R WCI  15
SIDNEY         LGT SNOW  28  25  88 N20       29.55R FOG     WCI  15
$$

NEZ057>060-069>072-079>082-252200-
SOUTHWEST NEBRASKA

CITY           SKY/WX    TMP DP  RH WIND       PRES   REMARKS
NORTH PLATTE   PTSUNNY   37  26  64 NE21      29.52R WCI  26
IMPERIAL       SUNNY     41  27  57 N18G26    29.51R
LEXINGTON      SUNNY     41  26  54 E9        29.50R
MCCOOK         SUNNY     42  23  46 NE9       29.49R
OGALLALA       MOSUNNY   36  29  74 N21G30    29.54R WCI  25
$$

NEZ005>010-023>029-035>040-094-252200-
NORTH CENTRAL NEBRASKA

CITY           SKY/WX    TMP DP  RH WIND       PRES   REMARKS
VALENTINE      LGT SNOW  30  27  88 N17G28    29.65R FOG     WCI  18
AINSWORTH      FOG       30  30  99 N26       29.60R VSB 3/4 WCI  16
BROKEN BOW     FAIR      38  29  70 N17       29.52R WCI  28
O`NEILL        CLOUDY    32  31  94 N16G22    29.60R WCI  21
ORD            SUNNY     42  25  50 NE12      29.53R
THEDFORD       CLOUDY    32  31  94 NE23G32   29.57R WCI  19
$$

NEZ041-046>049-061>064-073>077-083>087-252200-
SOUTH CENTRAL NEBRASKA

CITY           SKY/WX    TMP DP  RH WIND       PRES   REMARKS
GRAND ISLAND   SUNNY     44  26  49 VRB5      29.53R
AURORA         SUNNY     45  28  51 S9        29.52R
HASTINGS       SUNNY     45  25  45 S8        29.52R
HEBRON         SUNNY     49  28  43 S15G23    29.53R
HOLDREGE       SUNNY     43  23  45 CALM      29.50R
KEARNEY *      SUNNY     45  23  42 E6        29.52R
YORK           SUNNY     46  30  53 S12       29.53S
$$

NEZ011>018-030>034-042>045-252200-
NORTHEAST NEBRASKA

CITY           SKY/WX    TMP DP  RH WIND       PRES   REMARKS
NORFOLK        SUNNY     42  31  64 E8        29.57R
ALBION         SUNNY     42  29  59 E9        29.55R
BLAIR          SUNNY     47  33  56 SE12G22   29.57S
COLUMBUS *     SUNNY     45  30  57 S9        29.57S
FREMONT        SUNNY     48  33  55 SE14      29.58R
TEKAMAH        SUNNY     46  36  68 SE13      29.60R
WAYNE          MOSUNNY   42  32  70 SE8       29.60R
$$

NEZ050>053-065>068-078-088>093-252200-
SOUTHEAST NEBRASKA

CITY           SKY/WX    TMP DP  RH WIND       PRES   REMARKS
LINCOLN        SUNNY     50  30  46 S17       29.56S
OMAHA EPPLEY   MOSUNNY   49  31  49 S22       29.60S
BEATRICE       SUNNY     50  30  45 S21G28    29.54S
FALLS CITY     SUNNY     51  29  42 S21G35    29.60S
NEBRASKA CITY  SUNNY     51  26  38 S21       29.59S
PLATTSMOUTH    SUNNY     49  32  51 SE12G20   29.59S
$$

NEZ044-045-051>053-067-252200-
OMAHA AREA

CITY           SKY/WX    TMP DP  RH WIND       PRES   REMARKS
OMAHA EPPLEY   MOSUNNY   49  31  49 S22       29.60S
BLAIR          SUNNY     47  33  56 SE12G22   29.57S
FREMONT        SUNNY     48  33  55 SE14      29.58R
MILLARD        SUNNY     48  35  58 SE12      29.58S
OFFUTT AFB     SUNNY     48  34  57 SE13      29.59S
PLATTSMOUTH    SUNNY     49  32  51 SE12G20   29.59S
WAHOO          FAIR      48  32  52 S13       29.57R
$$


USA.gov is the U.S. government's official web portal to all federal, state and local government web resources and services.